[[{"header":{"parameterUnit":"m.s-1","parameterCategory":1,"la1":30.2991,"la2":30.254,"lo1":-89.0895,"lo2":-89.0444,"dx":0.0017,"dy":0.0017,"nx":28,"ny":28,"refTime":"2023-01-10T15:00:00:Z","depth":0,"parameterNumber":2,"parameterNumberName":"U-component_of_WINDS"},"data":[0,0,0,0,0,0,0,0,0,0,0,0,0,0,0,0,0,0,0,0,0,0,0,0,0,0,0,0,0,0,0,0,0,0,0,0,0,0,0,0,0,0,0,0,0,0,0,0,0,0,0,0,0,0,0,0,0,0,1.841,1.8411,0,1.8501,1.8502,1.8503,1.8486,1.8484,1.8482,1.8481,1.8581,1.8585,1.8589,0,0,0,0,0,0,0,0,0,0,0,0,0,1.8229,1.8232,1.841,1.8411,1.8412,1.8501,1.8502,1.8503,1.8486,1.8484,1.8482,1.848,1.8579,1.8584,1.8589,0,0,0,0,0,0,0,0,0,0,0,0,0,1.8312,1.8233,1.8409,1.8414,1.8415,1.85,1.8502,1.8503,1.8486,1.8484,1.8481,1.8479,1.8578,1.8584,1.859,1.8678,0,0,1.8609,1.8612,0,0,0,0,0,0,0,0,1.8308,1.8319,1.8412,1.8414,1.8415,1.8479,1.8475,1.8562,1.8487,1.846,1.8481,1.8478,1.8549,1.8558,1.8581,1.8683,1.8687,1.861,1.8614,1.8616,1.8618,0,0,0,0,0,0,0,1.8302,1.8315,1.8446,1.8413,1.8415,1.8414,1.8423,1.8491,1.8517,1.8462,1.8461,1.8471,1.855,1.8574,1.8583,1.8689,1.861,1.8615,1.8619,1.8622,1.8873,1.8876,0,0,0,0,0,0,1.8294,1.831,1.8443,1.8449,1.8354,1.8419,1.8429,1.8461,1.8517,1.8522,1.8473,1.847,1.8565,1.8575,1.8586,1.8696,1.8616,1.8622,1.8626,1.887,1.8873,1.8877,0,0,0,0,0,0,1.829,1.8306,1.8439,1.8379,1.8396,1.8425,1.8461,1.8464,1.8489,1.8525,1.8531,1.8493,1.8563,1.8577,1.8656,1.8699,1.8625,1.8631,1.8866,1.8871,1.8875,1.8915,0,0,0,0,0,0,1.8285,1.8304,1.8336,1.838,1.8399,1.8505,1.8463,1.8468,1.8499,1.8496,1.8545,1.8551,1.8563,1.8647,1.8662,1.8706,1.8636,1.8863,1.8868,1.8874,1.891,1.892,1.8928,0,0,0,0,0,1.8278,1.8344,1.8338,1.8354,1.8439,1.8508,1.8519,1.8529,1.8502,1.8537,1.856,1.855,1.8691,1.8655,1.8672,1.8719,1.886,1.8867,1.8873,1.8905,1.8918,1.8928,0,0,0,0,0,0,1.8306,1.835,1.8343,1.8425,1.8463,1.8504,1.8547,1.8541,1.8588,1.8584,1.8596,1.8607,1.8688,1.8711,1.8669,1.881,1.8773,1.8783,1.8791,1.8803,1.8812,1.8806,1.8641,0,0,0,0,0,1.8322,1.8371,1.8408,1.8477,1.8496,1.8518,1.8548,1.8553,1.8593,1.8609,1.8639,1.868,1.8734,1.877,1.8821,1.8913,1.8925,1.8954,1.8963,1.8971,1.898,1.9033,1.9047,1.8898,1.8898,1.8898,0,0,1.8355,1.8385,1.8416,1.8483,1.8512,1.8566,1.8532,1.8589,1.8631,1.8619,1.8695,1.8718,1.8766,1.8852,1.8891,1.8874,1.9024,1.8979,1.8985,1.899,1.9042,1.9056,1.9068,1.8902,1.8902,1.8901,0,0,1.8443,1.8469,1.853,1.8561,1.8606,1.8621,1.8636,1.8679,1.8694,1.877,1.8763,1.8813,1.8905,1.894,1.897,1.9074,1.9068,1.9091,1.9141,1.9192,1.9204,1.9215,1.9255,1.9268,1.91,1.91,1.91,0,1.8479,1.8557,1.8563,1.8622,1.8654,1.8644,1.8709,1.8739,1.8799,1.8822,1.8801,1.8918,1.8949,1.9045,1.9071,1.9094,1.9114,1.9086,1.9201,1.9212,1.9222,1.9261,1.9275,1.9102,1.9102,1.9102,1.9101,0,1.86,1.8655,1.87,1.8757,1.8794,1.8855,1.8874,1.891,1.8912,1.893,1.901,1.9047,1.9107,1.913,1.9133,1.9228,1.9216,1.9198,1.9162,1.9239,1.9275,1.929,1.9106,1.9105,1.9104,1.9104,0,0,1.8708,1.8769,1.8786,1.8813,1.8863,1.8906,1.8969,1.9026,1.9059,1.9102,1.9157,1.9236,1.922,1.9254,1.9261,1.9306,1.939,1.9284,1.9285,1.9304,1.95,1.9515,1.9531,1.9385,1.9388,1.939,1.9497,0,1.8802,1.891,1.8919,1.9018,1.907,1.9063,1.9118,1.9157,1.9176,1.9226,1.9248,1.9305,1.9279,1.93,1.9344,1.937,1.943,1.9362,1.944,1.9442,1.943,1.955,1.9564,1.9664,1.9511,1.9514,1.9515,0,1.8926,1.8972,1.9075,1.912,1.9142,1.9191,1.9246,1.9293,1.9338,1.9349,1.9388,1.9389,1.9457,1.9417,1.9512,1.9466,1.9499,1.9517,1.9521,1.953,1.9485,1.9565,1.9695,1.9711,1.9537,1.9535,1.9534,0,1.8998,1.9085,1.9158,1.9182,1.9235,1.927,1.9295,1.9337,1.9372,1.942,1.9444,1.95,1.9532,1.9577,1.9595,1.9564,1.9692,1.9652,1.9706,1.9705,1.9734,1.9732,1.9874,1.9751,1.9751,1.9751,1.975,0,1.9103,1.9167,1.9191,1.9237,1.931,1.9321,1.9394,1.9417,1.9455,1.9507,1.9505,1.9555,1.9574,1.9628,1.9643,1.9722,1.9735,1.9749,1.9752,1.975,1.9749,1.9773,1.9767,1.9755,1.9754,1.9753,1.9752,0,1.9195,1.9213,1.9294,1.9338,1.9351,1.9403,1.9443,1.9489,1.9507,1.9574,1.959,1.9621,1.9685,1.9706,1.9784,1.9794,1.9887,1.9883,1.9871,1.9872,1.9925,1.9921,2.0089,2.0113,1.9973,1.9974,1.9975,0,1.9262,1.9311,1.9361,1.9395,1.942,1.9475,1.9511,1.9525,1.9562,1.9618,1.9659,1.9721,1.9772,1.9875,1.9906,1.9966,1.9965,2.002,1.9975,1.9972,1.9969,1.9967,1.9974,2.0029,2.0031,2.0032,2.0033,0,1.9379,1.9386,1.9436,1.9491,1.9533,1.9577,1.962,1.9649,1.967,1.9713,1.9777,1.9817,1.9896,1.9959,2.0021,2.0049,2.0047,2.0047,2.0063,2.0062,2.0054,2.0062,1.9897,2.0043,2.0042,2.0041,2.0041,2.0041,1.9462,1.9507,1.9549,1.9607,1.964,1.9681,1.9726,1.9751,1.9804,1.9869,1.9874,1.9945,1.9992,2.0074,2.0105,2.0163,2.0148,2.017,2.0176,2.0182,2.0188,2.0043,2.0174,2.0173,2.0173,2.0173,2.0173,0,1.9582,1.9609,1.9661,1.9721,1.9767,1.9757,1.9805,1.9845,1.9906,1.9949,1.9999,2.0075,2.0137,2.0174,2.0237,2.0276,2.0276,2.0292,2.0291,2.0298,2.0196,2.0177,2.0291,2.0291,2.0291,2.0291,2.0291,2.0291,1.9649,1.9725,1.9738,1.9832,1.9859,1.9927,1.9955,1.9994,2.0028,2.0112,2.0163,2.0186,2.0228,2.0294,2.0352,2.0362,2.0386,2.0404,2.0413,2.0317,2.0305,2.0293,2.0275,2.0409,2.0409,2.051,2.0511,2.0512]},{"header":{"parameterUnit":"m.s-1","parameterCategory":1,"la1":30.2991,"la2":30.254,"lo1":-89.0895,"lo2":-89.0444,"dx":0.0017,"dy":0.0017,"nx":28,"ny":28,"refTime":"2023-01-10T15:00:00:Z","depth":0,"parameterNumber":3,"parameterNumberName":"V-component_of_WINDS"},"data":[0,0,0,0,0,0,0,0,0,0,0,0,0,0,0,0,0,0,0,0,0,0,0,0,0,0,0,0,0,0,0,0,0,0,0,0,0,0,0,0,0,0,0,0,0,0,0,0,0,0,0,0,0,0,0,0,0,0,3.9889,3.989,0,4.0008,4.001,4.0011,4.0032,4.0031,4.003,4.0029,4.015,4.0154,4.0158,0,0,0,0,0,0,0,0,0,0,0,0,0,3.9677,3.9681,3.9889,3.989,3.9892,4.0008,4.001,4.0011,4.0033,4.0031,4.003,4.0029,4.0149,4.0153,4.0158,0,0,0,0,0,0,0,0,0,0,0,0,0,3.978,3.9682,3.9888,3.9916,3.992,4.0008,4.001,4.0012,4.0033,4.0031,4.003,4.0028,4.0147,4.0153,4.0159,4.0227,0,0,4.0178,4.0181,0,0,0,0,0,0,0,0,3.9774,3.9788,3.9911,3.9914,3.9919,4.0004,3.9979,4.0084,4.0033,3.999,4.0029,4.0028,4.0102,4.0112,4.0138,4.0233,4.0238,4.0179,4.0182,4.0185,4.0187,0,0,0,0,0,0,0,3.9767,3.9783,3.9936,3.9912,3.9917,3.9922,3.9935,3.9999,4.0053,3.9994,3.9995,4.0009,4.0104,4.0132,4.0141,4.024,4.0178,4.0184,4.0188,4.019,4.0397,4.0399,0,0,0,0,0,0,3.9755,3.9777,3.9932,3.994,3.9841,3.9927,3.9942,3.9978,4.0052,4.0062,4.0011,4.001,4.0122,4.0134,4.0145,4.0231,4.0185,4.0191,4.0194,4.0396,4.0398,4.04,0,0,0,0,0,0,3.975,3.9769,3.9927,3.9859,3.9879,3.9933,3.9973,3.9981,4.0009,4.0065,4.0075,4.0029,4.0121,4.0136,4.0207,4.0235,4.0193,4.0199,4.0394,4.0396,4.0399,4.0402,0,0,0,0,0,0,3.9744,3.9767,3.9794,3.9859,3.9883,3.9988,3.9975,3.9985,4.002,4.002,4.0085,4.0094,4.0121,4.0198,4.0213,4.0243,4.0204,4.0391,4.0395,4.0398,4.0399,4.0404,4.0408,0,0,0,0,0,3.9737,3.9789,3.9795,3.9813,3.9917,3.9989,4.0003,4.0033,4.0022,4.0049,4.0085,4.0092,4.0229,4.0205,4.0222,4.0254,4.039,4.0394,4.0398,4.0397,4.0403,4.0408,0,0,0,0,0,0,3.9724,3.9798,3.9805,3.988,3.9928,3.9993,4.0028,4.0038,4.009,4.0088,4.0123,4.0138,4.0207,4.0237,4.0209,4.0325,4.0309,4.0316,4.0302,4.0308,4.0313,4.0304,4.0209,0,0,0,0,0,3.973,3.9783,3.9844,3.9904,3.9928,3.9974,4.0006,4.0026,4.0077,4.0097,4.0139,4.0187,4.0242,4.0276,4.0329,4.0404,4.0418,4.0434,4.0439,4.0442,4.0449,4.0491,4.0499,4.0413,4.0413,4.0413,0,0,3.9743,3.979,3.9821,3.9903,3.9943,3.9996,3.9991,4.0047,4.0088,4.0105,4.0175,4.0207,4.0264,4.0337,4.0371,4.0365,4.0476,4.0447,4.045,4.0454,4.0496,4.0504,4.0512,4.0416,4.0415,4.0415,0,0,3.9794,3.9834,3.989,3.993,3.999,4.0021,4.0034,4.0097,4.0119,4.019,4.0205,4.0253,4.0345,4.0386,4.0418,4.0486,4.0494,4.0502,4.0525,4.0566,4.0573,4.0579,4.0604,4.0613,4.0508,4.0508,4.0508,0,3.9802,3.9884,3.9916,3.9973,4.0009,4.0029,4.0086,4.0123,4.0197,4.0221,4.0213,4.0331,4.037,4.0453,4.047,4.0495,4.0512,4.0495,4.057,4.0576,4.0583,4.0607,4.0616,4.0508,4.0508,4.0508,4.0508,0,3.9892,3.9948,3.9986,4.0058,4.0099,4.0155,4.0196,4.0232,4.0249,4.028,4.0352,4.04,4.0463,4.0484,4.05,4.0571,4.0565,4.0563,4.0547,4.0591,4.0614,4.0624,4.0509,4.0509,4.0509,4.0509,0,0,3.9938,4.0029,4.0042,4.0076,4.0144,4.0189,4.0246,4.0309,4.0341,4.0391,4.044,4.0519,4.0518,4.0554,4.0575,4.0611,4.0663,4.0605,4.0607,4.0615,4.0744,4.0746,4.0756,4.0669,4.0671,4.0672,4.074,0,3.9998,4.0102,4.0133,4.022,4.0273,4.0293,4.0343,4.039,4.0421,4.047,4.0504,4.0559,4.0553,4.0576,4.0612,4.0649,4.0689,4.0644,4.0715,4.0717,4.0701,4.0769,4.0771,4.0832,4.0749,4.0751,4.0752,0,4.0082,4.0135,4.0228,4.0291,4.0315,4.0359,4.0421,4.0467,4.0522,4.0541,4.0583,4.0601,4.0662,4.0643,4.0727,4.0695,4.0726,4.0748,4.0751,4.076,4.0738,4.078,4.0852,4.0862,4.0766,4.0765,4.0764,0,4.0107,4.0203,4.0271,4.0299,4.0374,4.0405,4.0438,4.0491,4.0527,4.058,4.0604,4.0663,4.0696,4.0741,4.0774,4.0757,4.0856,4.0839,4.0874,4.0873,4.0894,4.0893,4.0974,4.0912,4.0912,4.0912,4.0912,0,4.0172,4.0228,4.0284,4.0326,4.0389,4.0425,4.0487,4.052,4.0567,4.0616,4.0636,4.0681,4.0722,4.0772,4.0799,4.0865,4.0879,4.0897,4.0903,4.0895,4.0893,4.0916,4.0913,4.0915,4.0914,4.0914,4.0913,0,4.0211,4.0251,4.0327,4.0392,4.041,4.0454,4.051,4.0552,4.0583,4.0645,4.0661,4.071,4.0771,4.0809,4.0885,4.0903,4.0976,4.098,4.0958,4.0961,4.0994,4.0991,4.1094,4.111,4.1037,4.1037,4.1038,0,4.025,4.0294,4.0365,4.04,4.0433,4.0488,4.0526,4.0562,4.0601,4.0667,4.07,4.0762,4.0814,4.091,4.0953,4.1011,4.1018,4.105,4.1027,4.1018,4.102,4.1017,4.1022,4.1054,4.1055,4.1055,4.1056,0,4.0315,4.0333,4.0387,4.0449,4.0494,4.0544,4.0593,4.062,4.0665,4.0707,4.077,4.081,4.089,4.0951,4.1014,4.1047,4.1059,4.1063,4.1074,4.1067,4.1053,4.1062,4.097,4.106,4.106,4.1059,4.1059,4.1059,4.0357,4.0397,4.0454,4.0514,4.0555,4.0602,4.0644,4.0682,4.0735,4.0803,4.0821,4.0887,4.0941,4.1027,4.1062,4.1113,4.1109,4.1125,4.1129,4.1133,4.1134,4.1044,4.1125,4.1125,4.1125,4.1125,4.1125,0,4.0424,4.0461,4.0516,4.0586,4.0633,4.0641,4.0697,4.0736,4.0794,4.0844,4.0895,4.0968,4.1028,4.1075,4.1137,4.117,4.1177,4.1185,4.1183,4.1191,4.1134,4.1119,4.1178,4.1178,4.1178,4.1178,4.1178,4.1178,4.0464,4.0534,4.0558,4.0649,4.0686,4.0752,4.0783,4.0826,4.0866,4.0947,4.0997,4.1028,4.1077,4.1143,4.1199,4.1211,4.1233,4.124,4.1254,4.12,4.1194,4.1189,4.1175,4.1245,4.1245,4.1306,4.1306,4.1307]}]]